www.cux-wetter.de
Wetterdaten: Donnerstag, 06.08.2009
Datum Zeit Temp. A. Feuchte A. Luftdruck Regen Wind Richtung Richtung Sonnenschein Solar Taupunkt Windchill Windben
06.08.2009 00:00 18,4 C 83 % 1021,5 hPa 0,0 l/m 7,8 km/h (2 Bft) SO 130 0 min 0 W/m 15,5 C 17,8 C 7,8 km/h (2 Bft)
06.08.2009 00:05 18,4 C 83 % 1021,5 hPa 0,0 l/m 7,9 km/h (2 Bft) O-SO 110 0 min 0 W/m 15,5 C 17,7 C 7,9 km/h (2 Bft)
06.08.2009 00:10 18,4 C 83 % 1021,5 hPa 0,0 l/m 11,0 km/h (2 Bft) O-SO 120 0 min 0 W/m 15,5 C 16,5 C 11,0 km/h (2 Bft)
06.08.2009 00:15 18,4 C 83 % 1021,5 hPa 0,0 l/m 9,2 km/h (2 Bft) O 100 0 min 0 W/m 15,5 C 17,2 C 9,2 km/h (2 Bft)
06.08.2009 00:20 18,5 C 83 % 1021,5 hPa 0,0 l/m 14,3 km/h (3 Bft) O-SO 110 0 min 0 W/m 15,6 C 15,6 C 14,3 km/h (3 Bft)
06.08.2009 00:25 18,5 C 82 % 1021,5 hPa 0,0 l/m 8,9 km/h (2 Bft) SO 140 0 min 0 W/m 15,4 C 17,4 C 8,9 km/h (2 Bft)
06.08.2009 00:30 18,4 C 82 % 1021,5 hPa 0,0 l/m 13,1 km/h (3 Bft) SO 125 0 min 0 W/m 15,3 C 15,8 C 13,1 km/h (3 Bft)
06.08.2009 00:35 18,4 C 82 % 1021,5 hPa 0,0 l/m 11,0 km/h (2 Bft) O-SO 115 0 min 0 W/m 15,3 C 16,5 C 11,0 km/h (2 Bft)
06.08.2009 00:40 18,4 C 82 % 1021,5 hPa 0,0 l/m 1,4 km/h (1 Bft) SO 125 0 min 0 W/m 15,3 C 18,4 C 1,4 km/h (1 Bft)
06.08.2009 00:46 18,4 C 82 % 1021,5 hPa 0,0 l/m 8,1 km/h (2 Bft) O 90 0 min 0 W/m 15,3 C 17,6 C 8,1 km/h (2 Bft)
06.08.2009 00:51 18,4 C 82 % 1021,5 hPa 0,0 l/m 9,2 km/h (2 Bft) O-SO 120 0 min 0 W/m 15,3 C 17,2 C 9,2 km/h (2 Bft)
06.08.2009 00:55 18,4 C 82 % 1021,5 hPa 0,0 l/m 6,1 km/h (2 Bft) O 95 0 min 0 W/m 15,3 C 18,4 C 6,1 km/h (2 Bft)
06.08.2009 01:00 18,4 C 82 % 1021,5 hPa 0,0 l/m 6,1 km/h (2 Bft) O 95 0 min 0 W/m 15,3 C 18,4 C 6,1 km/h (2 Bft)
06.08.2009 01:05 18,4 C 82 % 1021,5 hPa 0,0 l/m 7,7 km/h (2 Bft) SO 140 0 min 0 W/m 15,3 C 17,8 C 7,7 km/h (2 Bft)
06.08.2009 01:10 18,4 C 82 % 1021,5 hPa 0,0 l/m 9,6 km/h (2 Bft) O-SO 120 0 min 0 W/m 15,3 C 17,0 C 9,6 km/h (2 Bft)
06.08.2009 01:15 18,3 C 82 % 1021,5 hPa 0,0 l/m 13,6 km/h (3 Bft) SO 140 0 min 0 W/m 15,2 C 15,6 C 13,6 km/h (3 Bft)
06.08.2009 01:20 18,2 C 82 % 1021,5 hPa 0,0 l/m 9,5 km/h (2 Bft) SO 135 0 min 0 W/m 15,1 C 16,8 C 9,5 km/h (2 Bft)
06.08.2009 01:26 18,2 C 82 % 1020,5 hPa 0,0 l/m 9,7 km/h (2 Bft) SO 125 0 min 0 W/m 15,1 C 16,8 C 9,7 km/h (2 Bft)
06.08.2009 01:31 18,2 C 81 % 1020,5 hPa 0,0 l/m 8,4 km/h (2 Bft) SO 140 0 min 0 W/m 14,9 C 17,3 C 8,4 km/h (2 Bft)
06.08.2009 01:35 18,1 C 81 % 1020,5 hPa 0,0 l/m 8,6 km/h (2 Bft) S 175 0 min 0 W/m 14,8 C 17,1 C 8,6 km/h (2 Bft)
06.08.2009 01:40 18,1 C 81 % 1020,5 hPa 0,0 l/m 8,7 km/h (2 Bft) SO 145 0 min 0 W/m 14,8 C 17,1 C 8,7 km/h (2 Bft)
06.08.2009 01:45 18,1 C 81 % 1020,5 hPa 0,0 l/m 8,1 km/h (2 Bft) SO 140 0 min 0 W/m 14,8 C 17,3 C 8,1 km/h (2 Bft)
06.08.2009 01:50 18,1 C 81 % 1020,5 hPa 0,0 l/m 9,2 km/h (2 Bft) SO 140 0 min 0 W/m 14,8 C 16,9 C 9,2 km/h (2 Bft)
06.08.2009 01:55 18,1 C 80 % 1020,5 hPa 0,0 l/m 6,3 km/h (2 Bft) O-SO 115 0 min 0 W/m 14,6 C 18,1 C 6,3 km/h (2 Bft)
06.08.2009 02:00 18,0 C 80 % 1020,5 hPa 0,0 l/m 7,9 km/h (2 Bft) SO 145 0 min 0 W/m 14,5 C 17,3 C 7,9 km/h (2 Bft)
06.08.2009 02:06 18,0 C 80 % 1020,5 hPa 0,0 l/m 5,4 km/h (2 Bft) SO 145 0 min 0 W/m 14,5 C 18,0 C 5,4 km/h (2 Bft)
06.08.2009 02:11 18,0 C 80 % 1020,5 hPa 0,0 l/m 8,5 km/h (2 Bft) SO 135 0 min 0 W/m 14,5 C 17,0 C 8,5 km/h (2 Bft)
06.08.2009 02:15 18,0 C 81 % 1020,5 hPa 0,0 l/m 0,8 km/h (0 Bft) SO 130 0 min 0 W/m 14,7 C 18,0 C 0,8 km/h (0 Bft)
06.08.2009 02:20 18,0 C 80 % 1020,5 hPa 0,0 l/m 2,5 km/h (1 Bft) SO 140 0 min 0 W/m 14,5 C 18,0 C 2,5 km/h (1 Bft)
06.08.2009 02:25 18,0 C 80 % 1020,5 hPa 0,0 l/m 4,6 km/h (1 Bft) O-SO 110 0 min 0 W/m 14,5 C 18,0 C 4,6 km/h (1 Bft)
06.08.2009 02:30 17,9 C 80 % 1020,5 hPa 0,0 l/m 9,8 km/h (2 Bft) SO 140 0 min 0 W/m 14,4 C 16,4 C 9,8 km/h (2 Bft)
06.08.2009 02:35 17,9 C 81 % 1020,5 hPa 0,0 l/m 9,0 km/h (2 Bft) SO 140 0 min 0 W/m 14,6 C 16,7 C 9,0 km/h (2 Bft)
06.08.2009 02:40 17,7 C 81 % 1020,5 hPa 0,0 l/m 10,6 km/h (2 Bft) SO 130 0 min 0 W/m 14,4 C 15,9 C 10,6 km/h (2 Bft)
06.08.2009 02:45 17,7 C 81 % 1020,5 hPa 0,0 l/m 9,8 km/h (2 Bft) O-SO 120 0 min 0 W/m 14,4 C 16,2 C 9,8 km/h (2 Bft)
06.08.2009 02:50 17,7 C 81 % 1020,5 hPa 0,0 l/m 7,0 km/h (2 Bft) SO 145 0 min 0 W/m 14,4 C 17,4 C 7,0 km/h (2 Bft)
06.08.2009 02:56 17,6 C 81 % 1020,5 hPa 0,0 l/m 8,7 km/h (2 Bft) SO 140 0 min 0 W/m 14,3 C 16,5 C 8,7 km/h (2 Bft)
06.08.2009 03:01 17,6 C 81 % 1020,5 hPa 0,0 l/m 6,6 km/h (2 Bft) SO 125 0 min 0 W/m 14,3 C 17,5 C 6,6 km/h (2 Bft)
06.08.2009 03:05 17,6 C 81 % 1020,5 hPa 0,0 l/m 5,7 km/h (2 Bft) SO 125 0 min 0 W/m 14,3 C 17,6 C 5,7 km/h (2 Bft)
06.08.2009 03:10 17,6 C 81 % 1020,5 hPa 0,0 l/m 9,4 km/h (2 Bft) S-SO 155 0 min 0 W/m 14,3 C 16,2 C 9,4 km/h (2 Bft)
06.08.2009 03:15 17,6 C 81 % 1020,5 hPa 0,0 l/m 0,5 km/h (0 Bft) O 85 0 min 0 W/m 14,3 C 17,6 C 0,5 km/h (0 Bft)
06.08.2009 03:20 17,6 C 81 % 1020,5 hPa 0,0 l/m 4,2 km/h (1 Bft) SO 140 0 min 0 W/m 14,3 C 17,6 C 4,2 km/h (1 Bft)
06.08.2009 03:25 17,6 C 81 % 1020,5 hPa 0,0 l/m 8,3 km/h (2 Bft) S-SO 150 0 min 0 W/m 14,3 C 16,7 C 8,3 km/h (2 Bft)
06.08.2009 03:30 17,6 C 81 % 1020,5 hPa 0,0 l/m 3,3 km/h (1 Bft) S 170 0 min 0 W/m 14,3 C 17,6 C 3,3 km/h (1 Bft)
06.08.2009 03:36 17,6 C 81 % 1020,5 hPa 0,0 l/m 5,0 km/h (1 Bft) SO 145 0 min 0 W/m 14,3 C 17,6 C 5,0 km/h (1 Bft)
06.08.2009 03:41 17,5 C 81 % 1020,5 hPa 0,0 l/m 3,7 km/h (1 Bft) S-SO 155 0 min 0 W/m 14,2 C 17,5 C 3,7 km/h (1 Bft)
06.08.2009 03:45 17,5 C 81 % 1020,5 hPa 0,0 l/m 3,7 km/h (1 Bft) S-SO 155 0 min 0 W/m 14,2 C 17,5 C 3,7 km/h (1 Bft)
06.08.2009 03:50 17,5 C 81 % 1020,5 hPa 0,0 l/m 0,6 km/h (0 Bft) S-SO 155 0 min 0 W/m 14,2 C 17,5 C 0,6 km/h (0 Bft)
06.08.2009 03:55 17,4 C 81 % 1020,5 hPa 0,0 l/m 5,0 km/h (1 Bft) S 170 0 min 0 W/m 14,1 C 17,4 C 5,0 km/h (1 Bft)
06.08.2009 04:00 17,5 C 81 % 1020,5 hPa 0,0 l/m 5,7 km/h (2 Bft) SO 145 0 min 0 W/m 14,2 C 17,5 C 5,7 km/h (2 Bft)
06.08.2009 04:05 17,4 C 81 % 1020,5 hPa 0,0 l/m 0,3 km/h (0 Bft) S-SO 150 0 min 0 W/m 14,1 C 17,4 C 0,3 km/h (0 Bft)
06.08.2009 04:11 17,4 C 81 % 1020,5 hPa 0,0 l/m 0,0 km/h (0 Bft) S-SO 160 0 min 0 W/m 14,1 C 17,4 C 0,0 km/h (0 Bft)
06.08.2009 04:16 17,4 C 81 % 1020,5 hPa 0,0 l/m 0,4 km/h (0 Bft) S-SO 160 0 min 0 W/m 14,1 C 17,4 C 0,4 km/h (0 Bft)
06.08.2009 04:20 17,4 C 81 % 1020,5 hPa 0,0 l/m 2,9 km/h (1 Bft) S-SO 150 0 min 0 W/m 14,1 C 17,4 C 2,9 km/h (1 Bft)
06.08.2009 04:25 17,3 C 81 % 1020,5 hPa 0,0 l/m 0,9 km/h (0 Bft) S 170 0 min 0 W/m 14,0 C 17,3 C 0,9 km/h (0 Bft)
06.08.2009 04:30 17,2 C 81 % 1020,5 hPa 0,0 l/m 3,3 km/h (1 Bft) S-SO 155 0 min 0 W/m 13,9 C 17,2 C 3,3 km/h (1 Bft)
06.08.2009 04:35 17,2 C 81 % 1020,5 hPa 0,0 l/m 2,1 km/h (1 Bft) SO 135 0 min 0 W/m 13,9 C 17,2 C 2,1 km/h (1 Bft)
06.08.2009 04:40 17,2 C 81 % 1020,5 hPa 0,0 l/m 3,6 km/h (1 Bft) S-SO 155 0 min 0 W/m 13,9 C 17,2 C 3,6 km/h (1 Bft)
06.08.2009 04:45 17,2 C 82 % 1020,5 hPa 0,0 l/m 3,6 km/h (1 Bft) SO 140 0 min 0 W/m 14,1 C 17,2 C 3,6 km/h (1 Bft)
06.08.2009 04:50 17,1 C 81 % 1020,5 hPa 0,0 l/m 0,6 km/h (0 Bft) S-SO 155 0 min 0 W/m 13,8 C 17,1 C 0,6 km/h (0 Bft)
06.08.2009 04:56 17,0 C 82 % 1020,5 hPa 0,0 l/m 0,3 km/h (0 Bft) S-SO 150 0 min 0 W/m 13,9 C 17,0 C 0,3 km/h (0 Bft)
06.08.2009 05:01 16,9 C 81 % 1020,5 hPa 0,0 l/m 1,1 km/h (1 Bft) SO 145 0 min 0 W/m 13,6 C 16,9 C 1,1 km/h (1 Bft)
06.08.2009 05:05 17,0 C 82 % 1020,5 hPa 0,0 l/m 0,4 km/h (0 Bft) SO 145 0 min 0 W/m 13,9 C 17,0 C 0,4 km/h (0 Bft)
06.08.2009 05:10 17,0 C 82 % 1020,5 hPa 0,0 l/m 0,4 km/h (0 Bft) SO 135 0 min 0 W/m 13,9 C 17,0 C 0,4 km/h (0 Bft)
06.08.2009 05:15 16,9 C 81 % 1020,5 hPa 0,0 l/m 4,0 km/h (1 Bft) SO 135 0 min 0 W/m 13,6 C 16,9 C 4,0 km/h (1 Bft)
06.08.2009 05:20 16,9 C 81 % 1020,5 hPa 0,0 l/m 0,7 km/h (0 Bft) SO 140 0 min 0 W/m 13,6 C 16,9 C 0,7 km/h (0 Bft)
06.08.2009 05:25 16,8 C 81 % 1020,5 hPa 0,0 l/m 0,1 km/h (0 Bft) SO 135 0 min 0 W/m 13,5 C 16,8 C 0,1 km/h (0 Bft)
06.08.2009 05:31 16,9 C 81 % 1020,5 hPa 0,0 l/m 0,6 km/h (0 Bft) S-SO 150 0 min 0 W/m 13,6 C 16,9 C 0,6 km/h (0 Bft)
06.08.2009 05:36 16,8 C 81 % 1020,5 hPa 0,0 l/m 3,5 km/h (1 Bft) SO 125 0 min 0 W/m 13,5 C 16,8 C 3,5 km/h (1 Bft)
06.08.2009 05:40 16,8 C 81 % 1020,5 hPa 0,0 l/m 0,4 km/h (0 Bft) SO 135 0 min 0 W/m 13,5 C 16,8 C 0,4 km/h (0 Bft)
06.08.2009 05:45 16,7 C 82 % 1020,5 hPa 0,0 l/m 4,6 km/h (1 Bft) SO 130 0 min 0 W/m 13,6 C 16,7 C 4,6 km/h (1 Bft)
06.08.2009 05:50 16,6 C 82 % 1020,5 hPa 0,0 l/m 3,9 km/h (1 Bft) SO 130 0 min 0 W/m 13,5 C 16,6 C 3,9 km/h (1 Bft)
06.08.2009 05:55 16,6 C 82 % 1020,5 hPa 0,0 l/m 0,2 km/h (0 Bft) O-SO 110 0 min 0 W/m 13,5 C 16,6 C 0,2 km/h (0 Bft)
06.08.2009 06:00 16,5 C 83 % 1020,5 hPa 0,0 l/m 7,2 km/h (2 Bft) SO 130 0 min 0 W/m 13,6 C 16,1 C 7,2 km/h (2 Bft)
06.08.2009 06:06 16,5 C 83 % 1020,5 hPa 0,0 l/m 6,0 km/h (2 Bft) SO 135 0 min 0 W/m 13,6 C 16,5 C 6,0 km/h (2 Bft)
06.08.2009 06:10 16,6 C 83 % 1020,5 hPa 0,0 l/m 1,0 km/h (0 Bft) S-SO 165 0 min 0 W/m 13,7 C 16,6 C 1,0 km/h (0 Bft)
06.08.2009 06:15 16,6 C 83 % 1020,5 hPa 0,0 l/m 5,8 km/h (2 Bft) SO 145 0 min 0 W/m 13,7 C 16,6 C 5,8 km/h (2 Bft)
06.08.2009 06:20 16,6 C 83 % 1020,5 hPa 0,0 l/m 1,5 km/h (1 Bft) SO 140 0 min 0 W/m 13,7 C 16,6 C 1,5 km/h (1 Bft)
06.08.2009 06:25 16,7 C 83 % 1020,5 hPa 0,0 l/m 5,2 km/h (1 Bft) SO 140 0 min 0 W/m 13,8 C 16,7 C 5,2 km/h (1 Bft)
06.08.2009 06:30 16,8 C 84 % 1020,5 hPa 0,0 l/m 6,1 km/h (2 Bft) S 170 0 min 0 W/m 14,1 C 16,8 C 6,1 km/h (2 Bft)
06.08.2009 06:35 16,9 C 84 % 1020,5 hPa 0,0 l/m 5,5 km/h (2 Bft) SO 125 0 min 0 W/m 14,2 C 16,9 C 5,5 km/h (2 Bft)
06.08.2009 06:40 17,0 C 83 % 1020,5 hPa 0,0 l/m 4,9 km/h (1 Bft) S-SO 150 0 min 0 W/m 14,1 C 17,0 C 4,9 km/h (1 Bft)
06.08.2009 06:46 17,2 C 83 % 1020,5 hPa 0,0 l/m 7,5 km/h (2 Bft) O-SO 110 0 min 0 W/m 14,3 C 16,7 C 7,5 km/h (2 Bft)
06.08.2009 06:51 17,2 C 83 % 1020,5 hPa 0,0 l/m 8,3 km/h (2 Bft) SO 145 0 min 0 W/m 14,3 C 16,3 C 8,3 km/h (2 Bft)
06.08.2009 06:55 17,3 C 83 % 1020,5 hPa 0,0 l/m 5,3 km/h (1 Bft) S-SO 160 0 min 0 W/m 14,4 C 17,3 C 5,3 km/h (1 Bft)
06.08.2009 07:00 17,3 C 83 % 1020,5 hPa 0,0 l/m 8,7 km/h (2 Bft) SO 135 0 min 0 W/m 14,4 C 16,2 C 8,7 km/h (2 Bft)
06.08.2009 07:05 17,4 C 83 % 1020,5 hPa 0,0 l/m 9,5 km/h (2 Bft) S-SO 165 0 min 0 W/m 14,5 C 16,0 C 9,5 km/h (2 Bft)
06.08.2009 07:10 17,4 C 83 % 1020,5 hPa 0,0 l/m 9,2 km/h (2 Bft) SO 125 0 min 0 W/m 14,5 C 16,1 C 9,2 km/h (2 Bft)
06.08.2009 07:16 17,6 C 83 % 1020,5 hPa 0,0 l/m 11,4 km/h (2 Bft) SO 145 0 min 0 W/m 14,7 C 15,5 C 11,4 km/h (2 Bft)
06.08.2009 07:21 17,7 C 83 % 1020,5 hPa 0,0 l/m 10,0 km/h (2 Bft) S-SO 155 0 min 0 W/m 14,8 C 16,1 C 10,0 km/h (2 Bft)
06.08.2009 07:25 17,7 C 83 % 1020,5 hPa 0,0 l/m 11,0 km/h (2 Bft) S-SO 155 0 min 0 W/m 14,8 C 15,7 C 11,0 km/h (2 Bft)
06.08.2009 07:30 17,7 C 83 % 1020,5 hPa 0,0 l/m 10,3 km/h (2 Bft) S-SO 150 0 min 0 W/m 14,8 C 16,0 C 10,3 km/h (2 Bft)
06.08.2009 07:35 17,7 C 82 % 1020,5 hPa 0,0 l/m 7,1 km/h (2 Bft) SO 140 0 min 0 W/m 14,6 C 17,4 C 7,1 km/h (2 Bft)
06.08.2009 07:40 17,7 C 82 % 1020,5 hPa 0,0 l/m 9,2 km/h (2 Bft) SO 125 0 min 0 W/m 14,6 C 16,4 C 9,2 km/h (2 Bft)
06.08.2009 07:45 17,7 C 82 % 1020,5 hPa 0,0 l/m 8,2 km/h (2 Bft) SO 125 0 min 0 W/m 14,6 C 16,8 C 8,2 km/h (2 Bft)
06.08.2009 07:50 17,7 C 82 % 1020,5 hPa 0,0 l/m 6,3 km/h (2 Bft) O-SO 120 0 min 0 W/m 14,6 C 17,7 C 6,3 km/h (2 Bft)
06.08.2009 07:55 17,8 C 83 % 1020,5 hPa 0,0 l/m 6,2 km/h (2 Bft) SO 135 0 min 0 W/m 14,9 C 17,8 C 6,2 km/h (2 Bft)
06.08.2009 08:01 17,7 C 83 % 1020,5 hPa 0,0 l/m 10,5 km/h (2 Bft) SO 130 0 min 0 W/m 14,8 C 15,9 C 10,5 km/h (2 Bft)
06.08.2009 08:05 17,7 C 83 % 1020,5 hPa 0,0 l/m 12,3 km/h (2 Bft) SO 145 0 min 0 W/m 14,8 C 15,3 C 12,3 km/h (2 Bft)
06.08.2009 08:10 17,8 C 83 % 1020,5 hPa 0,0 l/m 3,1 km/h (1 Bft) SO 135 0 min 0 W/m 14,9 C 17,8 C 3,1 km/h (1 Bft)
06.08.2009 08:15 17,8 C 83 % 1020,5 hPa 0,0 l/m 9,6 km/h (2 Bft) SO 140 0 min 0 W/m 14,9 C 16,4 C 9,6 km/h (2 Bft)
06.08.2009 08:20 17,8 C 83 % 1020,5 hPa 0,0 l/m 8,9 km/h (2 Bft) O-SO 120 0 min 0 W/m 14,9 C 16,7 C 8,9 km/h (2 Bft)
06.08.2009 08:25 18,0 C 83 % 1021,5 hPa 0,0 l/m 10,0 km/h (2 Bft) SO 125 0 min 0 W/m 15,1 C 16,4 C 10,0 km/h (2 Bft)
06.08.2009 08:31 18,0 C 83 % 1021,5 hPa 0,0 l/m 13,1 km/h (3 Bft) S-SO 155 0 min 0 W/m 15,1 C 15,4 C 13,1 km/h (3 Bft)
06.08.2009 08:36 18,3 C 83 % 1020,5 hPa 0,0 l/m 11,7 km/h (2 Bft) SO 145 0 min 0 W/m 15,4 C 16,2 C 11,7 km/h (2 Bft)
06.08.2009 08:40 18,6 C 82 % 1020,5 hPa 0,0 l/m 13,8 km/h (3 Bft) SO 140 0 min 0 W/m 15,5 C 15,9 C 13,8 km/h (3 Bft)
06.08.2009 08:45 18,8 C 81 % 1020,5 hPa 0,0 l/m 15,1 km/h (3 Bft) S-SO 160 0 min 0 W/m 15,5 C 15,8 C 15,1 km/h (3 Bft)
06.08.2009 08:50 18,9 C 81 % 1020,5 hPa 0,0 l/m 10,4 km/h (2 Bft) SO 145 0 min 0 W/m 15,6 C 17,3 C 10,4 km/h (2 Bft)
06.08.2009 08:55 19,3 C 80 % 1020,5 hPa 0,0 l/m 10,0 km/h (2 Bft) SO 140 0 min 0 W/m 15,8 C 17,9 C 10,0 km/h (2 Bft)
06.08.2009 09:00 19,4 C 78 % 1020,5 hPa 0,0 l/m 12,1 km/h (2 Bft) S-SO 160 0 min 0 W/m 15,5 C 17,3 C 12,1 km/h (2 Bft)
06.08.2009 09:06 19,6 C 78 % 1020,5 hPa 0,0 l/m 12,6 km/h (3 Bft) SO 125 0 min 0 W/m 15,7 C 17,4 C 12,6 km/h (3 Bft)
06.08.2009 09:10 19,8 C 77 % 1021,5 hPa 0,0 l/m 12,0 km/h (2 Bft) SO 145 0 min 0 W/m 15,6 C 17,8 C 12,0 km/h (2 Bft)
06.08.2009 09:15 19,9 C 77 % 1021,5 hPa 0,0 l/m 12,0 km/h (2 Bft) S-SO 150 0 min 0 W/m 15,7 C 17,9 C 12,0 km/h (2 Bft)
06.08.2009 09:20 20,0 C 77 % 1021,5 hPa 0,0 l/m 12,7 km/h (3 Bft) S 170 0 min 0 W/m 15,8 C 17,8 C 12,7 km/h (3 Bft)
06.08.2009 09:25 20,4 C 76 % 1021,5 hPa 0,0 l/m 11,4 km/h (2 Bft) S 175 0 min 0 W/m 16,0 C 18,7 C 11,4 km/h (2 Bft)
06.08.2009 09:30 20,8 C 75 % 1021,5 hPa 0,0 l/m 11,0 km/h (2 Bft) S 170 0 min 0 W/m 16,2 C 19,2 C 11,0 km/h (2 Bft)
06.08.2009 09:35 21,0 C 73 % 1021,5 hPa 0,0 l/m 16,7 km/h (3 Bft) S-SO 165 0 min 0 W/m 16,0 C 18,1 C 16,7 km/h (3 Bft)
06.08.2009 09:40 21,4 C 72 % 1021,5 hPa 0,0 l/m 13,6 km/h (3 Bft) S-SO 160 0 min 0 W/m 16,1 C 19,3 C 13,6 km/h (3 Bft)
06.08.2009 09:46 21,6 C 73 % 1021,5 hPa 0,0 l/m 9,6 km/h (2 Bft) S 175 0 min 0 W/m 16,5 C 20,5 C 9,6 km/h (2 Bft)
06.08.2009 09:51 21,8 C 71 % 1020,5 hPa 0,0 l/m 18,7 km/h (3 Bft) S-SO 155 0 min 0 W/m 16,3 C 18,7 C 18,7 km/h (3 Bft)
06.08.2009 09:55 22,0 C 71 % 1020,5 hPa 0,0 l/m 13,6 km/h (3 Bft) SO 140 0 min 0 W/m 16,5 C 20,0 C 13,6 km/h (3 Bft)
06.08.2009 10:00 22,5 C 70 % 1020,5 hPa 0,0 l/m 11,5 km/h (2 Bft) SO 130 0 min 0 W/m 16,7 C 21,0 C 11,5 km/h (2 Bft)
06.08.2009 10:05 23,2 C 72 % 1021,5 hPa 0,0 l/m 6,7 km/h (2 Bft) SO 135 0 min 0 W/m 17,9 C 23,1 C 6,7 km/h (2 Bft)
06.08.2009 10:10 23,3 C 69 % 1021,5 hPa 0,0 l/m 10,1 km/h (2 Bft) SO 135 0 min 0 W/m 17,3 C 22,3 C 10,1 km/h (2 Bft)
06.08.2009 10:16 23,1 C 69 % 1021,5 hPa 0,0 l/m 7,1 km/h (2 Bft) SO 135 0 min 0 W/m 17,1 C 22,9 C 7,1 km/h (2 Bft)
06.08.2009 10:21 22,8 C 70 % 1021,5 hPa 0,0 l/m 1,8 km/h (1 Bft) O-SO 110 0 min 0 W/m 17,0 C 22,8 C 1,8 km/h (1 Bft)
06.08.2009 10:25 22,8 C 70 % 1021,5 hPa 0,0 l/m 6,9 km/h (2 Bft) SO 130 0 min 0 W/m 17,0 C 22,6 C 6,9 km/h (2 Bft)
06.08.2009 10:30 23,1 C 72 % 1021,5 hPa 0,0 l/m 6,7 km/h (2 Bft) SO 140 0 min 0 W/m 17,8 C 23,0 C 6,7 km/h (2 Bft)
06.08.2009 10:35 24,0 C 70 % 1021,5 hPa 0,0 l/m 8,9 km/h (2 Bft) SO 135 0 min 0 W/m 18,2 C 23,3 C 8,9 km/h (2 Bft)
06.08.2009 10:40 24,7 C 67 % 1021,5 hPa 0,0 l/m 5,5 km/h (2 Bft) SO 125 0 min 0 W/m 18,1 C 24,7 C 5,5 km/h (2 Bft)
06.08.2009 10:45 24,7 C 67 % 1021,5 hPa 0,0 l/m 6,3 km/h (2 Bft) S-SO 155 0 min 0 W/m 18,1 C 24,7 C 6,3 km/h (2 Bft)
06.08.2009 10:50 25,9 C 65 % 1021,5 hPa 0,0 l/m 1,2 km/h (1 Bft) S-SO 155 0 min 0 W/m 18,8 C 25,9 C 1,2 km/h (1 Bft)
06.08.2009 10:56 26,2 C 61 % 1021,5 hPa 0,0 l/m 14,8 km/h (3 Bft) SO 125 0 min 0 W/m 18,1 C 24,8 C 14,8 km/h (3 Bft)
06.08.2009 11:01 26,2 C 62 % 1021,5 hPa 0,0 l/m 10,9 km/h (2 Bft) O 85 0 min 0 W/m 18,3 C 25,3 C 10,9 km/h (2 Bft)
06.08.2009 11:05 26,3 C 59 % 1021,5 hPa 0,0 l/m 10,1 km/h (2 Bft) O-SO 120 0 min 0 W/m 17,6 C 25,6 C 10,1 km/h (2 Bft)
06.08.2009 11:10 26,4 C 59 % 1021,5 hPa 0,0 l/m 8,2 km/h (2 Bft) S 180 0 min 0 W/m 17,7 C 26,0 C 8,2 km/h (2 Bft)
06.08.2009 11:15 26,4 C 59 % 1021,5 hPa 0,0 l/m 8,5 km/h (2 Bft) S 170 0 min 0 W/m 17,7 C 26,0 C 8,5 km/h (2 Bft)
06.08.2009 11:21 26,4 C 59 % 1021,5 hPa 0,0 l/m 14,2 km/h (3 Bft) SO 135 0 min 0 W/m 17,7 C 25,1 C 14,2 km/h (3 Bft)
06.08.2009 11:26 26,5 C 57 % 1021,5 hPa 0,0 l/m 11,2 km/h (2 Bft) O 85 0 min 0 W/m 17,3 C 25,6 C 11,2 km/h (2 Bft)
06.08.2009 11:30 26,6 C 57 % 1021,5 hPa 0,0 l/m 10,6 km/h (2 Bft) O 90 0 min 0 W/m 17,4 C 25,8 C 10,6 km/h (2 Bft)
06.08.2009 11:35 26,6 C 59 % 1021,5 hPa 0,0 l/m 10,5 km/h (2 Bft) O 95 0 min 0 W/m 17,9 C 25,9 C 10,5 km/h (2 Bft)
06.08.2009 11:40 26,8 C 59 % 1021,5 hPa 0,0 l/m 12,7 km/h (3 Bft) O 80 0 min 0 W/m 18,1 C 25,8 C 12,7 km/h (3 Bft)
06.08.2009 11:45 27,0 C 58 % 1021,5 hPa 0,0 l/m 10,7 km/h (2 Bft) O-SO 120 0 min 0 W/m 18,0 C 26,3 C 10,7 km/h (2 Bft)
06.08.2009 11:50 27,2 C 59 % 1021,5 hPa 0,0 l/m 8,3 km/h (2 Bft) O 100 0 min 0 W/m 18,5 C 26,9 C 8,3 km/h (2 Bft)
06.08.2009 11:55 27,2 C 58 % 1021,5 hPa 0,0 l/m 11,9 km/h (2 Bft) O 95 0 min 0 W/m 18,2 C 26,3 C 11,9 km/h (2 Bft)
06.08.2009 12:01 27,3 C 58 % 1021,5 hPa 0,0 l/m 13,3 km/h (3 Bft) O-SO 110 0 min 0 W/m 18,3 C 26,3 C 13,3 km/h (3 Bft)
06.08.2009 12:05 27,4 C 58 % 1021,5 hPa 0,0 l/m 11,1 km/h (2 Bft) O 85 0 min 0 W/m 18,4 C 26,7 C 11,1 km/h (2 Bft)
06.08.2009 12:10 27,6 C 57 % 1021,5 hPa 0,0 l/m 8,9 km/h (2 Bft) O-NO 65 0 min 0 W/m 18,3 C 27,2 C 8,9 km/h (2 Bft)
06.08.2009 12:15 27,6 C 56 % 1020,5 hPa 0,0 l/m 14,1 km/h (3 Bft) O 100 0 min 0 W/m 18,0 C 26,5 C 14,1 km/h (3 Bft)
06.08.2009 12:20 27,5 C 56 % 1020,5 hPa 0,0 l/m 11,5 km/h (2 Bft) O-SO 120 0 min 0 W/m 17,9 C 26,7 C 11,5 km/h (2 Bft)
06.08.2009 12:25 27,4 C 57 % 1020,5 hPa 0,0 l/m 12,0 km/h (2 Bft) O-SO 115 0 min 0 W/m 18,1 C 26,6 C 12,0 km/h (2 Bft)
06.08.2009 12:31 27,4 C 55 % 1020,5 hPa 0,0 l/m 23,8 km/h (4 Bft) O-SO 105 0 min 0 W/m 17,5 C 25,5 C 23,8 km/h (4 Bft)
06.08.2009 12:36 27,4 C 57 % 1020,5 hPa 0,0 l/m 23,8 km/h (4 Bft) O-SO 105 0 min 0 W/m 18,1 C 25,5 C 23,8 km/h (4 Bft)
06.08.2009 12:40 27,4 C 57 % 1020,5 hPa 0,0 l/m 15,0 km/h (3 Bft) O-SO 105 0 min 0 W/m 18,1 C 26,2 C 15,0 km/h (3 Bft)
06.08.2009 12:45 27,4 C 56 % 1020,5 hPa 0,0 l/m 9,5 km/h (2 Bft) O-SO 105 0 min 0 W/m 17,8 C 26,9 C 9,5 km/h (2 Bft)
06.08.2009 12:50 27,5 C 54 % 1020,5 hPa 0,0 l/m 13,6 km/h (3 Bft) O 95 0 min 0 W/m 17,3 C 26,5 C 13,6 km/h (3 Bft)
06.08.2009 12:55 27,5 C 53 % 1020,5 hPa 0,0 l/m 18,6 km/h (3 Bft) O-NO 70 0 min 0 W/m 17,0 C 26,0 C 18,6 km/h (3 Bft)
06.08.2009 13:00 27,4 C 51 % 1020,5 hPa 0,0 l/m 12,1 km/h (2 Bft) O 90 0 min 0 W/m 16,3 C 26,5 C 12,1 km/h (2 Bft)
06.08.2009 13:05 27,2 C 54 % 1020,5 hPa 0,0 l/m 13,8 km/h (3 Bft) O-SO 105 0 min 0 W/m 17,1 C 26,1 C 13,8 km/h (3 Bft)
06.08.2009 13:10 27,2 C 52 % 1020,5 hPa 0,0 l/m 15,1 km/h (3 Bft) O 95 0 min 0 W/m 16,5 C 26,0 C 15,1 km/h (3 Bft)
06.08.2009 13:15 27,1 C 54 % 1020,5 hPa 0,0 l/m 10,0 km/h (2 Bft) SO 135 0 min 0 W/m 17,0 C 26,5 C 10,0 km/h (2 Bft)
06.08.2009 13:20 27,2 C 55 % 1020,5 hPa 0,0 l/m 10,8 km/h (2 Bft) SO 140 0 min 0 W/m 17,4 C 26,5 C 10,8 km/h (2 Bft)
06.08.2009 13:25 27,4 C 54 % 1020,5 hPa 0,0 l/m 14,3 km/h (3 Bft) O 100 0 min 0 W/m 17,3 C 26,3 C 14,3 km/h (3 Bft)
06.08.2009 13:30 27,5 C 54 % 1020,5 hPa 0,0 l/m 14,6 km/h (3 Bft) O-SO 115 0 min 0 W/m 17,3 C 26,4 C 14,6 km/h (3 Bft)
06.08.2009 13:36 27,6 C 55 % 1020,5 hPa 0,0 l/m 10,3 km/h (2 Bft) O-SO 105 0 min 0 W/m 17,7 C 27,0 C 10,3 km/h (2 Bft)
06.08.2009 13:41 27,8 C 53 % 1020,5 hPa 0,0 l/m 14,1 km/h (3 Bft) O 95 0 min 0 W/m 17,3 C 26,8 C 14,1 km/h (3 Bft)
06.08.2009 13:45 27,8 C 52 % 1020,5 hPa 0,0 l/m 12,0 km/h (2 Bft) O 95 0 min 0 W/m 17,0 C 27,0 C 12,0 km/h (2 Bft)
06.08.2009 13:50 27,9 C 53 % 1020,5 hPa 0,0 l/m 16,2 km/h (3 Bft) O 85 0 min 0 W/m 17,4 C 26,7 C 16,2 km/h (3 Bft)
06.08.2009 13:55 27,6 C 53 % 1020,5 hPa 0,0 l/m 15,5 km/h (3 Bft) O 95 0 min 0 W/m 17,1 C 26,4 C 15,5 km/h (3 Bft)
06.08.2009 14:00 27,6 C 54 % 1020,5 hPa 0,0 l/m 13,0 km/h (3 Bft) O-NO 70 0 min 0 W/m 17,4 C 26,7 C 13,0 km/h (3 Bft)
06.08.2009 14:06 27,6 C 53 % 1020,5 hPa 0,0 l/m 16,0 km/h (3 Bft) O 95 0 min 0 W/m 17,1 C 26,4 C 16,0 km/h (3 Bft)
06.08.2009 14:11 27,6 C 51 % 1020,5 hPa 0,0 l/m 14,5 km/h (3 Bft) O 95 0 min 0 W/m 16,5 C 26,5 C 14,5 km/h (3 Bft)
06.08.2009 14:15 27,7 C 53 % 1020,5 hPa 0,0 l/m 14,6 km/h (3 Bft) O 90 0 min 0 W/m 17,2 C 26,6 C 14,6 km/h (3 Bft)
06.08.2009 14:20 27,8 C 53 % 1020,5 hPa 0,0 l/m 11,8 km/h (2 Bft) O 80 0 min 0 W/m 17,3 C 27,0 C 11,8 km/h (2 Bft)
06.08.2009 14:25 27,8 C 50 % 1020,5 hPa 0,0 l/m 16,1 km/h (3 Bft) O-SO 105 0 min 0 W/m 16,4 C 26,6 C 16,1 km/h (3 Bft)
06.08.2009 14:30 27,8 C 53 % 1020,5 hPa 0,0 l/m 12,2 km/h (2 Bft) O 95 0 min 0 W/m 17,3 C 27,0 C 12,2 km/h (2 Bft)
06.08.2009 14:35 27,8 C 53 % 1020,5 hPa 0,0 l/m 20,0 km/h (4 Bft) O 85 0 min 0 W/m 17,3 C 26,3 C 20,0 km/h (4 Bft)
06.08.2009 14:40 27,9 C 52 % 1020,5 hPa 0,0 l/m 18,6 km/h (3 Bft) O 90 0 min 0 W/m 17,1 C 26,5 C 18,6 km/h (3 Bft)
06.08.2009 14:46 28,0 C 52 % 1020,5 hPa 0,0 l/m 10,7 km/h (2 Bft) O 80 0 min 0 W/m 17,2 C 27,4 C 10,7 km/h (2 Bft)
06.08.2009 14:51 28,0 C 51 % 1020,5 hPa 0,0 l/m 13,1 km/h (3 Bft) O 90 0 min 0 W/m 16,9 C 27,1 C 13,1 km/h (3 Bft)
06.08.2009 14:55 27,9 C 49 % 1020,5 hPa 0,0 l/m 14,6 km/h (3 Bft) O 100 0 min 0 W/m 16,2 C 26,9 C 14,6 km/h (3 Bft)
06.08.2009 15:00 27,8 C 48 % 1020,5 hPa 0,0 l/m 15,1 km/h (3 Bft) O-SO 105 0 min 0 W/m 15,8 C 26,7 C 15,1 km/h (3 Bft)
06.08.2009 15:05 27,8 C 48 % 1020,5 hPa 0,0 l/m 15,3 km/h (3 Bft) O 95 0 min 0 W/m 15,8 C 26,7 C 15,3 km/h (3 Bft)
06.08.2009 15:11 27,8 C 50 % 1020,5 hPa 0,0 l/m 12,0 km/h (2 Bft) O-SO 110 0 min 0 W/m 16,4 C 27,0 C 12,0 km/h (2 Bft)
06.08.2009 15:16 27,8 C 48 % 1020,5 hPa 0,0 l/m 10,6 km/h (2 Bft) O-SO 105 0 min 0 W/m 15,8 C 27,2 C 10,6 km/h (2 Bft)
06.08.2009 15:20 27,8 C 49 % 1020,5 hPa 0,0 l/m 15,9 km/h (3 Bft) O-NO 75 0 min 0 W/m 16,1 C 26,6 C 15,9 km/h (3 Bft)
06.08.2009 15:25 27,8 C 50 % 1020,5 hPa 0,0 l/m 12,5 km/h (2 Bft) O-SO 115 0 min 0 W/m 16,4 C 27,0 C 12,5 km/h (2 Bft)
06.08.2009 15:30 27,8 C 49 % 1020,5 hPa 0,0 l/m 15,1 km/h (3 Bft) O 85 0 min 0 W/m 16,1 C 26,7 C 15,1 km/h (3 Bft)
06.08.2009 15:35 27,7 C 49 % 1020,5 hPa 0,0 l/m 14,4 km/h (3 Bft) O 80 0 min 0 W/m 16,0 C 26,6 C 14,4 km/h (3 Bft)
06.08.2009 15:40 27,6 C 48 % 1020,5 hPa 0,0 l/m 16,0 km/h (3 Bft) O 85 0 min 0 W/m 15,6 C 26,4 C 16,0 km/h (3 Bft)
06.08.2009 15:45 27,6 C 46 % 1020,5 hPa 0,0 l/m 17,1 km/h (3 Bft) O-SO 120 0 min 0 W/m 14,9 C 26,3 C 17,1 km/h (3 Bft)
06.08.2009 15:51 27,6 C 47 % 1020,5 hPa 0,0 l/m 17,3 km/h (3 Bft) O 90 0 min 0 W/m 15,3 C 26,2 C 17,3 km/h (3 Bft)
06.08.2009 15:56 27,6 C 48 % 1020,5 hPa 0,0 l/m 15,8 km/h (3 Bft) O 80 0 min 0 W/m 15,6 C 26,4 C 15,8 km/h (3 Bft)
06.08.2009 16:00 27,7 C 47 % 1020,5 hPa 0,0 l/m 13,9 km/h (3 Bft) O 90 0 min 0 W/m 15,3 C 26,7 C 13,9 km/h (3 Bft)
06.08.2009 16:05 27,7 C 48 % 1019,5 hPa 0,0 l/m 15,3 km/h (3 Bft) O 85 0 min 0 W/m 15,7 C 26,5 C 15,3 km/h (3 Bft)
06.08.2009 16:10 27,7 C 46 % 1019,5 hPa 0,0 l/m 16,8 km/h (3 Bft) SO 130 0 min 0 W/m 15,0 C 26,4 C 16,8 km/h (3 Bft)
06.08.2009 16:15 27,6 C 46 % 1020,5 hPa 0,0 l/m 13,2 km/h (3 Bft) O 80 0 min 0 W/m 14,9 C 26,6 C 13,2 km/h (3 Bft)
06.08.2009 16:21 27,6 C 48 % 1020,5 hPa 0,0 l/m 10,6 km/h (2 Bft) O 85 0 min 0 W/m 15,6 C 27,0 C 10,6 km/h (2 Bft)
06.08.2009 16:25 27,6 C 46 % 1019,5 hPa 0,0 l/m 16,6 km/h (3 Bft) O-NO 70 0 min 0 W/m 14,9 C 26,3 C 16,6 km/h (3 Bft)
06.08.2009 16:30 27,6 C 46 % 1019,5 hPa 0,0 l/m 12,1 km/h (2 Bft) O 95 0 min 0 W/m 14,9 C 26,8 C 12,1 km/h (2 Bft)
06.08.2009 16:35 27,6 C 46 % 1019,5 hPa 0,0 l/m 10,9 km/h (2 Bft) O-NO 65 0 min 0 W/m 14,9 C 26,9 C 10,9 km/h (2 Bft)
06.08.2009 16:40 27,8 C 47 % 1019,5 hPa 0,0 l/m 14,3 km/h (3 Bft) O 95 0 min 0 W/m 15,4 C 26,8 C 14,3 km/h (3 Bft)
06.08.2009 16:45 27,8 C 48 % 1019,5 hPa 0,0 l/m 11,0 km/h (2 Bft) O 95 0 min 0 W/m 15,8 C 27,1 C 11,0 km/h (2 Bft)
06.08.2009 16:50 27,8 C 46 % 1019,5 hPa 0,0 l/m 13,6 km/h (3 Bft) O-SO 110 0 min 0 W/m 15,1 C 26,8 C 13,6 km/h (3 Bft)
06.08.2009 16:56 27,7 C 47 % 1019,5 hPa 0,0 l/m 9,1 km/h (2 Bft) O-NO 70 0 min 0 W/m 15,3 C 27,3 C 9,1 km/h (2 Bft)
06.08.2009 17:01 27,7 C 48 % 1019,5 hPa 0,0 l/m 14,7 km/h (3 Bft) O 100 0 min 0 W/m 15,7 C 26,6 C 14,7 km/h (3 Bft)
06.08.2009 17:05 27,6 C 48 % 1019,5 hPa 0,0 l/m 11,6 km/h (2 Bft) O 95 0 min 0 W/m 15,6 C 26,8 C 11,6 km/h (2 Bft)
06.08.2009 17:10 27,6 C 46 % 1019,5 hPa 0,0 l/m 12,4 km/h (2 Bft) O-NO 75 0 min 0 W/m 14,9 C 26,7 C 12,4 km/h (2 Bft)
06.08.2009 17:15 27,6 C 48 % 1019,5 hPa 0,0 l/m 11,3 km/h (2 Bft) O 85 0 min 0 W/m 15,6 C 26,9 C 11,3 km/h (2 Bft)
06.08.2009 17:21 27,5 C 48 % 1019,5 hPa 0,0 l/m 11,3 km/h (2 Bft) O 85 0 min 0 W/m 15,5 C 26,8 C 11,3 km/h (2 Bft)
06.08.2009 17:26 27,4 C 47 % 1019,5 hPa 0,0 l/m 14,1 km/h (3 Bft) SO 125 0 min 0 W/m 15,1 C 26,3 C 14,1 km/h (3 Bft)
06.08.2009 17:30 27,4 C 49 % 1019,5 hPa 0,0 l/m 10,8 km/h (2 Bft) O-SO 110 0 min 0 W/m 15,7 C 26,7 C 10,8 km/h (2 Bft)
06.08.2009 17:35 27,3 C 49 % 1019,5 hPa 0,0 l/m 7,0 km/h (2 Bft) O 95 0 min 0 W/m 15,6 C 27,2 C 7,0 km/h (2 Bft)
06.08.2009 17:40 27,3 C 49 % 1019,5 hPa 0,0 l/m 13,3 km/h (3 Bft) O 100 0 min 0 W/m 15,6 C 26,3 C 13,3 km/h (3 Bft)
06.08.2009 17:45 27,2 C 48 % 1019,5 hPa 0,0 l/m 6,7 km/h (2 Bft) O 80 0 min 0 W/m 15,2 C 27,1 C 6,7 km/h (2 Bft)
06.08.2009 17:50 27,1 C 49 % 1019,5 hPa 0,0 l/m 12,0 km/h (2 Bft) O-SO 110 0 min 0 W/m 15,4 C 26,2 C 12,0 km/h (2 Bft)
06.08.2009 17:56 27,0 C 50 % 1019,5 hPa 0,0 l/m 12,0 km/h (2 Bft) O-SO 110 0 min 0 W/m 15,7 C 26,1 C 12,0 km/h (2 Bft)
06.08.2009 18:01 26,8 C 50 % 1019,5 hPa 0,0 l/m 9,1 km/h (2 Bft) O-SO 115 0 min 0 W/m 15,5 C 26,3 C 9,1 km/h (2 Bft)
06.08.2009 18:05 26,8 C 50 % 1019,5 hPa 0,0 l/m 7,7 km/h (2 Bft) O 95 0 min 0 W/m 15,5 C 26,5 C 7,7 km/h (2 Bft)
06.08.2009 18:10 26,6 C 51 % 1019,5 hPa 0,0 l/m 9,4 km/h (2 Bft) O-SO 105 0 min 0 W/m 15,6 C 26,0 C 9,4 km/h (2 Bft)
06.08.2009 18:15 26,5 C 52 % 1019,5 hPa 0,0 l/m 10,5 km/h (2 Bft) O 85 0 min 0 W/m 15,8 C 25,7 C 10,5 km/h (2 Bft)
06.08.2009 18:21 26,5 C 54 % 1019,5 hPa 0,0 l/m 8,4 km/h (2 Bft) O 90 0 min 0 W/m 16,4 C 26,1 C 8,4 km/h (2 Bft)
06.08.2009 18:26 26,3 C 53 % 1019,5 hPa 0,0 l/m 11,9 km/h (2 Bft) O-SO 120 0 min 0 W/m 15,9 C 25,3 C 11,9 km/h (2 Bft)
06.08.2009 18:30 26,1 C 54 % 1019,5 hPa 0,0 l/m 12,6 km/h (3 Bft) O 90 0 min 0 W/m 16,0 C 25,0 C 12,6 km/h (3 Bft)
06.08.2009 18:35 26,0 C 55 % 1019,5 hPa 0,0 l/m 11,8 km/h (2 Bft) O-SO 105 0 min 0 W/m 16,2 C 25,0 C 11,8 km/h (2 Bft)
06.08.2009 18:40 25,9 C 56 % 1019,5 hPa 0,0 l/m 11,7 km/h (2 Bft) O-SO 110 0 min 0 W/m 16,4 C 24,9 C 11,7 km/h (2 Bft)
06.08.2009 18:45 25,8 C 56 % 1019,5 hPa 0,0 l/m 12,2 km/h (2 Bft) O-SO 110 0 min 0 W/m 16,3 C 24,7 C 12,2 km/h (2 Bft)
06.08.2009 18:50 25,6 C 56 % 1019,5 hPa 0,0 l/m 7,2 km/h (2 Bft) O 100 0 min 0 W/m 16,2 C 25,4 C 7,2 km/h (2 Bft)
06.08.2009 18:56 25,6 C 56 % 1019,5 hPa 0,0 l/m 12,0 km/h (2 Bft) SO 135 0 min 0 W/m 16,2 C 24,5 C 12,0 km/h (2 Bft)
06.08.2009 19:01 25,4 C 57 % 1019,5 hPa 0,0 l/m 14,5 km/h (3 Bft) O-SO 115 0 min 0 W/m 16,2 C 23,9 C 14,5 km/h (3 Bft)
06.08.2009 19:05 25,2 C 57 % 1019,5 hPa 0,0 l/m 14,1 km/h (3 Bft) SO 135 0 min 0 W/m 16,1 C 23,7 C 14,1 km/h (3 Bft)
06.08.2009 19:10 25,2 C 58 % 1019,5 hPa 0,0 l/m 2,4 km/h (1 Bft) S-SO 155 0 min 0 W/m 16,3 C 25,2 C 2,4 km/h (1 Bft)
06.08.2009 19:15 25,1 C 58 % 1019,5 hPa 0,0 l/m 10,3 km/h (2 Bft) SO 125 0 min 0 W/m 16,2 C 24,2 C 10,3 km/h (2 Bft)
06.08.2009 19:21 24,9 C 58 % 1019,5 hPa 0,0 l/m 10,6 km/h (2 Bft) O-SO 110 0 min 0 W/m 16,1 C 23,9 C 10,6 km/h (2 Bft)
06.08.2009 19:26 24,8 C 58 % 1019,5 hPa 0,0 l/m 13,0 km/h (3 Bft) SO 125 0 min 0 W/m 16,0 C 23,4 C 13,0 km/h (3 Bft)
06.08.2009 19:30 24,7 C 59 % 1019,5 hPa 0,0 l/m 14,3 km/h (3 Bft) SO 140 0 min 0 W/m 16,1 C 23,1 C 14,3 km/h (3 Bft)
06.08.2009 19:35 24,6 C 59 % 1019,5 hPa 0,0 l/m 11,6 km/h (2 Bft) O-SO 105 0 min 0 W/m 16,0 C 23,4 C 11,6 km/h (2 Bft)
06.08.2009 19:40 24,4 C 60 % 1019,5 hPa 0,0 l/m 11,6 km/h (2 Bft) O-SO 105 0 min 0 W/m 16,1 C 23,2 C 11,6 km/h (2 Bft)
06.08.2009 19:45 24,4 C 60 % 1019,5 hPa 0,0 l/m 9,6 km/h (2 Bft) O-SO 105 0 min 0 W/m 16,1 C 23,6 C 9,6 km/h (2 Bft)
06.08.2009 19:50 24,2 C 61 % 1019,5 hPa 0,0 l/m 8,4 km/h (2 Bft) SO 130 0 min 0 W/m 16,2 C 23,7 C 8,4 km/h (2 Bft)
06.08.2009 19:56 24,1 C 61 % 1018,5 hPa 0,0 l/m 14,6 km/h (3 Bft) O-SO 115 0 min 0 W/m 16,1 C 22,3 C 14,6 km/h (3 Bft)
06.08.2009 20:01 24,0 C 61 % 1018,5 hPa 0,0 l/m 17,0 km/h (3 Bft) SO 135 0 min 0 W/m 16,0 C 21,8 C 17,0 km/h (3 Bft)
06.08.2009 20:05 23,8 C 62 % 1018,5 hPa 0,0 l/m 12,0 km/h (2 Bft) O-SO 115 0 min 0 W/m 16,1 C 22,4 C 12,0 km/h (2 Bft)
06.08.2009 20:10 23,7 C 63 % 1018,5 hPa 0,0 l/m 11,3 km/h (2 Bft) SO 135 0 min 0 W/m 16,2 C 22,4 C 11,3 km/h (2 Bft)
06.08.2009 20:15 23,6 C 63 % 1018,5 hPa 0,0 l/m 12,6 km/h (3 Bft) SO 125 0 min 0 W/m 16,1 C 22,1 C 12,6 km/h (3 Bft)
06.08.2009 20:21 23,5 C 63 % 1018,5 hPa 0,0 l/m 13,5 km/h (3 Bft) O 100 0 min 0 W/m 16,0 C 21,8 C 13,5 km/h (3 Bft)
06.08.2009 20:26 23,4 C 64 % 1018,5 hPa 0,0 l/m 10,6 km/h (2 Bft) SO 130 0 min 0 W/m 16,2 C 22,3 C 10,6 km/h (2 Bft)
06.08.2009 20:30 23,2 C 65 % 1018,5 hPa 0,0 l/m 11,3 km/h (2 Bft) O 100 0 min 0 W/m 16,2 C 21,9 C 11,3 km/h (2 Bft)
06.08.2009 20:35 23,2 C 66 % 1019,5 hPa 0,0 l/m 8,0 km/h (2 Bft) SO 125 0 min 0 W/m 16,5 C 22,7 C 8,0 km/h (2 Bft)
06.08.2009 20:40 23,0 C 67 % 1019,5 hPa 0,0 l/m 13,0 km/h (3 Bft) SO 125 0 min 0 W/m 16,5 C 21,3 C 13,0 km/h (3 Bft)
06.08.2009 20:45 22,8 C 68 % 1019,5 hPa 0,0 l/m 17,5 km/h (3 Bft) SO 135 0 min 0 W/m 16,6 C 20,2 C 17,5 km/h (3 Bft)
06.08.2009 20:50 22,8 C 68 % 1019,5 hPa 0,0 l/m 15,6 km/h (3 Bft) SO 140 0 min 0 W/m 16,6 C 20,5 C 15,6 km/h (3 Bft)
06.08.2009 20:56 22,6 C 69 % 1019,5 hPa 0,0 l/m 13,3 km/h (3 Bft) O-SO 115 0 min 0 W/m 16,6 C 20,7 C 13,3 km/h (3 Bft)
06.08.2009 21:01 22,5 C 70 % 1019,5 hPa 0,0 l/m 11,4 km/h (2 Bft) O-SO 110 0 min 0 W/m 16,7 C 21,0 C 11,4 km/h (2 Bft)
06.08.2009 21:05 22,4 C 71 % 1019,5 hPa 0,0 l/m 10,3 km/h (2 Bft) O 85 0 min 0 W/m 16,9 C 21,2 C 10,3 km/h (2 Bft)
06.08.2009 21:10 22,2 C 71 % 1019,5 hPa 0,0 l/m 13,1 km/h (3 Bft) O 95 0 min 0 W/m 16,7 C 20,3 C 13,1 km/h (3 Bft)
06.08.2009 21:15 22,1 C 71 % 1019,5 hPa 0,0 l/m 14,0 km/h (3 Bft) O-SO 105 0 min 0 W/m 16,6 C 20,0 C 14,0 km/h (3 Bft)
06.08.2009 21:21 22,0 C 72 % 1019,5 hPa 0,0 l/m 12,8 km/h (3 Bft) SO 135 0 min 0 W/m 16,7 C 20,1 C 12,8 km/h (3 Bft)
06.08.2009 21:25 21,8 C 73 % 1019,5 hPa 0,0 l/m 15,1 km/h (3 Bft) SO 125 0 min 0 W/m 16,7 C 19,4 C 15,1 km/h (3 Bft)
06.08.2009 21:30 21,7 C 73 % 1019,5 hPa 0,0 l/m 8,7 km/h (2 Bft) SO 125 0 min 0 W/m 16,6 C 20,9 C 8,7 km/h (2 Bft)
06.08.2009 21:35 21,6 C 73 % 1019,5 hPa 0,0 l/m 17,6 km/h (3 Bft) O-SO 120 0 min 0 W/m 16,5 C 18,7 C 17,6 km/h (3 Bft)
06.08.2009 21:40 21,6 C 73 % 1019,5 hPa 0,0 l/m 17,1 km/h (3 Bft) S-SO 160 0 min 0 W/m 16,5 C 18,8 C 17,1 km/h (3 Bft)
06.08.2009 21:45 21,4 C 73 % 1019,5 hPa 0,0 l/m 16,3 km/h (3 Bft) O-SO 120 0 min 0 W/m 16,4 C 18,7 C 16,3 km/h (3 Bft)
06.08.2009 21:50 21,3 C 74 % 1019,5 hPa 0,0 l/m 11,9 km/h (2 Bft) O 90 0 min 0 W/m 16,5 C 19,6 C 11,9 km/h (2 Bft)
06.08.2009 21:56 21,2 C 74 % 1019,5 hPa 0,0 l/m 14,1 km/h (3 Bft) O-SO 115 0 min 0 W/m 16,4 C 18,9 C 14,1 km/h (3 Bft)
06.08.2009 22:01 21,1 C 74 % 1019,5 hPa 0,0 l/m 9,9 km/h (2 Bft) SO 125 0 min 0 W/m 16,3 C 19,9 C 9,9 km/h (2 Bft)
06.08.2009 22:05 21,0 C 75 % 1019,5 hPa 0,0 l/m 7,9 km/h (2 Bft) SO 135 0 min 0 W/m 16,4 C 20,4 C 7,9 km/h (2 Bft)
06.08.2009 22:10 20,9 C 75 % 1019,5 hPa 0,0 l/m 18,2 km/h (3 Bft) SO 130 0 min 0 W/m 16,3 C 17,7 C 18,2 km/h (3 Bft)
06.08.2009 22:15 20,9 C 75 % 1019,5 hPa 0,0 l/m 13,5 km/h (3 Bft) SO 140 0 min 0 W/m 16,3 C 18,7 C 13,5 km/h (3 Bft)
06.08.2009 22:21 20,8 C 75 % 1019,5 hPa 0,0 l/m 10,7 km/h (2 Bft) SO 125 0 min 0 W/m 16,2 C 19,3 C 10,7 km/h (2 Bft)
06.08.2009 22:25 20,8 C 75 % 1019,5 hPa 0,0 l/m 14,4 km/h (3 Bft) SO 125 0 min 0 W/m 16,2 C 18,4 C 14,4 km/h (3 Bft)
06.08.2009 22:30 20,7 C 75 % 1019,5 hPa 0,0 l/m 16,0 km/h (3 Bft) O-SO 120 0 min 0 W/m 16,1 C 17,9 C 16,0 km/h (3 Bft)
06.08.2009 22:35 20,6 C 75 % 1019,5 hPa 0,0 l/m 19,0 km/h (3 Bft) O-SO 120 0 min 0 W/m 16,0 C 17,2 C 19,0 km/h (3 Bft)
06.08.2009 22:40 20,5 C 76 % 1019,5 hPa 0,0 l/m 11,7 km/h (2 Bft) O-SO 115 0 min 0 W/m 16,1 C 18,7 C 11,7 km/h (2 Bft)
06.08.2009 22:45 20,4 C 76 % 1019,5 hPa 0,0 l/m 15,1 km/h (3 Bft) SO 130 0 min 0 W/m 16,0 C 17,7 C 15,1 km/h (3 Bft)
06.08.2009 22:50 20,3 C 77 % 1019,5 hPa 0,0 l/m 14,3 km/h (3 Bft) O-SO 120 0 min 0 W/m 16,1 C 17,8 C 14,3 km/h (3 Bft)
06.08.2009 22:56 20,2 C 77 % 1019,5 hPa 0,0 l/m 11,1 km/h (2 Bft) SO 125 0 min 0 W/m 16,0 C 18,5 C 11,1 km/h (2 Bft)
06.08.2009 23:00 20,2 C 77 % 1019,5 hPa 0,0 l/m 9,6 km/h (2 Bft) O-SO 115 0 min 0 W/m 16,0 C 19,0 C 9,6 km/h (2 Bft)
06.08.2009 23:05 20,2 C 77 % 1019,5 hPa 0,0 l/m 12,2 km/h (2 Bft) O 100 0 min 0 W/m 16,0 C 18,2 C 12,2 km/h (2 Bft)
06.08.2009 23:10 20,0 C 77 % 1019,5 hPa 0,0 l/m 11,1 km/h (2 Bft) SO 130 0 min 0 W/m 15,8 C 18,3 C 11,1 km/h (2 Bft)
06.08.2009 23:16 20,1 C 77 % 1019,5 hPa 0,0 l/m 4,5 km/h (1 Bft) O-SO 105 0 min 0 W/m 15,9 C 20,1 C 4,5 km/h (1 Bft)
06.08.2009 23:21 19,9 C 78 % 1019,5 hPa 0,0 l/m 9,2 km/h (2 Bft) O 100 0 min 0 W/m 15,9 C 18,8 C 9,2 km/h (2 Bft)
06.08.2009 23:25 19,9 C 78 % 1019,5 hPa 0,0 l/m 9,0 km/h (2 Bft) O 95 0 min 0 W/m 15,9 C 18,9 C 9,0 km/h (2 Bft)
06.08.2009 23:30 19,7 C 78 % 1019,5 hPa 0,0 l/m 11,8 km/h (2 Bft) O-SO 110 0 min 0 W/m 15,8 C 17,7 C 11,8 km/h (2 Bft)
06.08.2009 23:35 19,7 C 79 % 1019,5 hPa 0,0 l/m 8,5 km/h (2 Bft) SO 135 0 min 0 W/m 16,0 C 18,8 C 8,5 km/h (2 Bft)
06.08.2009 23:40 19,6 C 79 % 1019,5 hPa 0,0 l/m 16,1 km/h (3 Bft) O-SO 105 0 min 0 W/m 15,9 C 16,5 C 16,1 km/h (3 Bft)
06.08.2009 23:45 19,7 C 80 % 1019,5 hPa 0,0 l/m 12,9 km/h (3 Bft) SO 125 0 min 0 W/m 16,1 C 17,4 C 12,9 km/h (3 Bft)
06.08.2009 23:51 19,7 C 80 % 1019,5 hPa 0,0 l/m 13,6 km/h (3 Bft) O-SO 115 0 min 0 W/m 16,1 C 17,2 C 13,6 km/h (3 Bft)
06.08.2009 23:56 19,6 C 80 % 1019,5 hPa 0,0 l/m 17,2 km/h (3 Bft) SO 130 0 min 0 W/m 16,1 C 16,3 C 17,2 km/h (3 Bft)
_ Min-Zeit 06:00 15:45 19:56 - 04:11 - - - - 05:50 08:05 04:11
Minimum _ 16,5 C 46 % 1018,5 hPa - 0,0 km/h (0 Bft) - - - - 13,5 C 15,3 C 0,0 km/h (0 Bft)
_ Max-Zeit 14:46 06:30 00:00 00:00 12:31 - - 00:00 00:00 10:50 14:46 12:31
Maximum _ 28,0 C 84 % 1021,5 hPa 0,0 l/m 23,8 km/h
O-SO (4 Bft)
- - 0 min 0 W/m 18,8 C 27,4 C 23,8 km/h
O-SO (4 Bft)
Durchschnitt _ 22,2 C 69 % 1020,3 hPa #0,0 l/m 10,2 km/h (2 Bft) SO - #0 min. 0 W/m 15,7 C 21,1 C 10,2 km/h (2 Bft)
copyright by Holger Just